Find Starlink 4128

NORAD ID: 53249 Int'l Des: 2022-086 Owner: SPXS Country: US Constellation: starlink operational
LEOCIRCULAR

現在のビュー

3D地球を読み込み中...

About Starlink 4128

Starlink 4128 (NORAD 53249) is a starlink constellation satellite (v1.5) launched Jul 24, 2022 by SPXS of US. It operates in LEO, CIRCULAR orbit with a mass of 297.00 kg.

Starlink 4128について

説明を読み込み中...

次回通過

Passes for default location (London). Set your location on the main map for personalized predictions.

高度履歴

Loading altitude history...

軌道要素

1 53249U 22086H 26175.25002315 .00092460 00000-0 42810-2 0 9998
2 53249 53.1609 75.4090 0001610 129.7643 121.8130 15.19347538 5854
Epoch: Jun 24, 2026 • Age: 22 hours

現在のステータス

高度 513.6 km
速度 7.61 km/s
衛星直下点 -23.14°S, 62.24°W
打ち上げ日 Jul 24, 2022
運用期間 3.9 years
タイプ internet

技術仕様

分類 Payload
質量 297.00 kg
乾燥質量 275.00 kg
総質量 297.00 kg
長さ 0.20 m
直径 2.80 m
スパン 9.00 m
形状 Box + pan
製造者 SPXS
バスタイプ Starlink
フェーズステータス In Orbit
所有者/国 SPXS/US

Most Searched